Overview Statistics Trail Chart Weather Telemetry Raw packets
 

This is the latest recevied weather packets stored in our database for station/object KD7CIH. If no packets are shown the sender has not sent any weather packets the latest 10 day(s).

<< 37 38 39 40 41 42 43 >>
Time Temp. Humidity Pressure Rain* Wind** Luminosity Snow
1788443235 12.22° C 61% 1012.8 hPa 0 mm - - -
1788442807 11.67° C 62% 1012.8 hPa 0 mm - - -
1788442633 11.67° C 64% 1012.7 hPa 0 mm - - -
1788442206 11.67° C 66% 1012.7 hPa 0 mm - - -
1788441908 11.67° C 66% 1012.5 hPa 0 mm - - -
1788441610 11.67° C 66% 1012.5 hPa 0 mm - - -
1788441308 11.67° C 64% 1012.4 hPa 0 mm - - -
1788441007 11.11° C 63% 1012.4 hPa 0 mm - - -
1788440835 11.11° C 64% 1012.3 hPa 0 mm - - -
1788440407 11.67° C 64% 1012.2 hPa 0 mm - - -
1788440106 11.67° C 65% 1012 hPa 0 mm - - -
1788439807 12.78° C 62% 1012 hPa 0 mm - - -
1788439509 13.33° C 50% 1011.9 hPa 0 mm - - -
1788439206 13.89° C 50% 1012 hPa 0 mm - - -
1788438906 13.89° C 49% 1011.8 hPa 0 mm - - -
1788438606 13.89° C 47% 1011.9 hPa 0 mm - - -
1788438307 13.89° C 51% 1011.8 hPa 0 mm - - -
1788438134 13.89° C 49% 1011.8 hPa 0 mm - - -
1788437707 13.89° C 49% 1011.7 hPa 0 mm - - -
1788437407 13.89° C 50% 1011.7 hPa 0 mm - - -
1788437109 13.33° C 55% 1011.7 hPa 0 mm - - -
1788436807 13.33° C 58% 1011.6 hPa 0 mm - - -
1788436506 13.33° C 62% 1011.6 hPa 0 mm - - -
1788436207 13.33° C 63% 1011.6 hPa 0 mm - - -
1788435909 13.33° C 64% 1011.7 hPa 0 mm - - -

* Rain latest hour (hover to see other rain measurements)
** Current wind speed in m/s (hover to see current wind gust speed)